W4IFI Weather Reports


Display with metric or nautical units.
time (UTC)temp
F
wind
direction
speed
MPH
gust
MPH
rain 1hr
in
rain 24hr
in
rain mn
in
humidity
%
barometer
mb
20171211185734 47 6 1.0 4.0 0.00 0.05 0.01 43 1015.9
20171211184834 47 233 2.0 6.0 0.00 0.05 0.01 44 1015.8
20171211183934 48 258 1.0 7.0 0.00 0.05 0.01 42 1015.8
20171211183034 47 269 1.0 3.0 0.00 0.05 0.01 46 1015.8
20171211182134 46 272 3.0 7.0 0.00 0.05 0.01 45 1016.0
20171211181234 46 274 3.0 8.0 0.00 0.05 0.01 45 1016.3
20171211180334 46 247 2.0 7.0 0.00 0.05 0.01 45 1016.4
20171211175434 45 259 4.0 11.0 0.00 0.05 0.01 48 1016.7
20171211174534 45 277 4.0 10.0 0.00 0.06 0.01 48 1017.1
20171211173634 45 240 4.0 10.0 0.00 0.06 0.01 47 1017.3
20171211172734 45 260 4.0 10.0 0.00 0.06 0.01 46 1017.5
20171211171834 45 261 3.0 9.0 0.00 0.06 0.01 48 1017.6
20171211170934 44 259 3.0 9.0 0.00 0.07 0.01 46 1017.8
20171211170034 45 250 3.0 8.0 0.01 0.07 0.01 48 1018.1
20171211165134 44 266 3.0 8.0 0.01 0.08 0.01 48 1018.2
20171211164234 44 239 2.0 5.0 0.01 0.09 0.01 48 1018.3
20171211163334 44 242 4.0 9.0 0.01 0.09 0.01 48 1018.4
20171211162434 44 248 3.0 8.0 0.01 0.09 0.01 49 1018.7
20171211161534 43 239 2.0 6.0 0.01 0.09 0.01 51 1018.9
20171211160634 42 259 3.0 6.0 0.01 0.09 0.01 51 1019.1
20171211155734 42 262 4.0 9.0 0.00 0.08 0.00 51 1019.2
20171211154834 42 263 2.0 4.0 0.00 0.09 0.00 51 1019.5
20171211153934 41 265 3.0 9.0 0.00 0.10 0.00 52 1019.5
20171211153034 41 355 2.0 5.0 0.00 0.10 0.00 55 1019.5
20171211152134 40 360 2.0 4.0 0.00 0.11 0.00 56 1019.5
20171211151234 39 360 1.0 6.0 0.00 0.11 0.00 57 1019.5
20171211150334 38 251 2.0 5.0 0.00 0.11 0.00 60 1019.6
20171211145434 38 258 1.0 4.0 0.00 0.11 0.00 65 1019.8
20171211144534 37 260 2.0 6.0 0.00 0.11 0.00 66 1019.6
20171211143634 36 264 1.0 4.0 0.00 0.11 0.00 69 1019.7
20171211142734 35 0 0.0 0.0 0.00 0.11 0.00 73 1019.5
20171211141834 34 0 0.0 0.0 0.00 0.11 0.00 77 1019.4
20171211140934 33 0 0.0 0.0 0.00 0.11 0.00 78 1019.4
20171211140034 32 0 0.0 0.0 0.00 0.11 0.00 79 1019.2
20171211135134 32 0 0.0 0.0 0.00 0.11 0.00 81 1018.9
20171211134234 31 0 0.0 0.0 0.00 0.11 0.00 81 1018.8
20171211133334 30 0 0.0 0.0 0.00 0.11 0.00 82 1018.9
20171211132434 30 0 0.0 0.0 0.00 0.11 0.00 82 1019.1
20171211131534 29 0 0.0 0.0 0.00 0.11 0.00 84 1018.9
20171211130634 29 0 0.0 0.0 0.00 0.11 0.00 85 1018.9
20171211125734 29 0 0.0 0.0 0.00 0.11 0.00 85 1019.0
20171211124834 29 0 0.0 0.0 0.00 0.11 0.00 84 1019.0
20171211123934 29 0 0.0 0.0 0.00 0.11 0.00 85 1018.9
20171211123034 29 0 0.0 0.0 0.00 0.11 0.00 83 1018.7
20171211122134 30 0 0.0 0.0 0.00 0.11 0.00 83 1018.7
20171211121234 30 0 0.0 0.0 0.00 0.11 0.00 82 1018.6
20171211120334 30 0 0.0 0.0 0.00 0.11 0.00 82 1018.5
20171211115434 31 0 0.0 0.0 0.00 0.11 0.00 82 1018.3
20171211114534 31 0 0.0 0.0 0.00 0.11 0.00 82 1018.5
20171211113634 31 0 0.0 0.0 0.00 0.11 0.00 83 1018.3
20171211112734 31 0 0.0 0.0 0.00 0.11 0.00 81 1018.3
20171211111834 31 0 0.0 0.0 0.00 0.11 0.00 80 1018.3
20171211110934 31 0 0.0 0.0 0.00 0.11 0.00 79 1018.2
20171211110034 31 0 0.0 0.0 0.00 0.11 0.00 78 1018.1
20171211105134 31 0 0.0 0.0 0.00 0.11 0.00 80 1018.1
20171211104234 31 0 0.0 0.0 0.00 0.11 0.00 80 1018.0
20171211103334 31 0 0.0 0.0 0.00 0.11 0.00 80 1018.0
20171211102434 32 0 0.0 0.0 0.00 0.11 0.00 78 1017.8
20171211101534 32 0 0.0 0.0 0.00 0.11 0.00 76 1017.8
20171211100634 32 0 0.0 0.0 0.00 0.11 0.00 76 1017.7
20171211095734 32 0 0.0 0.0 0.00 0.11 0.00 76 1017.6
20171211094834 32 0 0.0 0.0 0.00 0.11 0.00 76 1017.7
20171211093934 32 0 0.0 0.0 0.00 0.11 0.00 77 1017.6
20171211093034 32 0 0.0 0.0 0.00 0.11 0.00 76 1017.5
20171211092134 32 0 0.0 0.0 0.00 0.11 0.00 76 1017.3
20171211091234 31 0 0.0 0.0 0.00 0.11 0.00 78 1017.4
20171211090334 31 0 0.0 0.0 0.00 0.11 0.00 79 1017.4
20171211085434 32 0 0.0 0.0 0.00 0.11 0.00 79 1017.3
20171211084534 32 0 0.0 0.0 0.00 0.11 0.00 77 1017.3
20171211083634 32 0 0.0 0.0 0.00 0.11 0.00 77 1017.3
20171211082734 32 0 0.0 0.0 0.00 0.11 0.00 77 1017.2
20171211081834 32 0 0.0 0.0 0.00 0.11 0.00 76 1017.3
20171211080934 32 0 0.0 0.0 0.00 0.11 0.00 75 1017.3
20171211080034 31 0 0.0 0.0 0.00 0.11 0.00 77 1017.4
20171211075134 31 0 0.0 0.0 0.00 0.11 0.00 76 1017.3
20171211074234 31 0 0.0 0.0 0.00 0.11 0.00 75 1017.3
20171211073334 31 0 0.0 0.0 0.00 0.11 0.00 75 1017.4
20171211072434 32 0 0.0 0.0 0.00 0.11 0.00 74 1017.4
20171211071534 32 0 0.0 0.0 0.00 0.11 0.00 73 1017.3
20171211070634 32 0 0.0 0.0 0.00 0.11 0.00 72 1017.2
20171211065734 32 0 0.0 0.0 0.00 0.11 0.00 72 1017.2
20171211064834 33 0 0.0 0.0 0.00 0.11 0.00 72 1017.0
20171211063934 33 0 0.0 0.0 0.00 0.11 0.00 71 1017.1
20171211063034 33 0 0.0 0.0 0.00 0.11 0.00 70 1017.0
20171211062134 33 0 0.0 0.0 0.00 0.11 0.00 72 1017.0
20171211061234 33 0 0.0 0.0 0.00 0.11 0.00 70 1017.1
20171211060334 33 227 0.0 1.0 0.00 0.11 0.00 70 1017.1
20171211055434 33 229 1.0 3.0 0.00 0.11 0.00 71 1017.1
20171211054534 33 239 0.0 3.0 0.00 0.11 0.00 69 1017.2
20171211053634 33 263 0.0 1.0 0.00 0.11 0.00 70 1017.5
20171211052734 33 263 0.0 1.0 0.00 0.11 0.00 69 1017.6
20171211051834 33 263 0.0 1.0 0.00 0.11 0.00 70 1017.7
20171211050934 33 0 0.0 0.0 0.00 0.11 0.00 69 1017.8
20171211050034 33 0 0.0 0.0 0.00 0.11 0.00 69 1017.7
20171211045134 33 0 0.0 0.0 0.00 0.11 0.11 68 1017.8
20171211044234 34 263 0.0 1.0 0.00 0.11 0.11 68 1017.7
20171211043334 34 263 0.0 1.0 0.00 0.11 0.11 67 1017.7
20171211042434 34 263 0.0 1.0 0.00 0.11 0.11 67 1017.8
20171211041534 34 263 0.0 2.0 0.00 0.11 0.11 66 1017.8
20171211040634 34 0 0.0 0.0 0.00 0.11 0.11 67 1017.7
20171211035734 34 263 0.0 1.0 0.00 0.11 0.11 67 1017.6
20171211034834 34 263 0.0 2.0 0.00 0.11 0.11 65 1017.6
20171211033934 34 263 0.0 1.0 0.00 0.11 0.11 65 1017.6
20171211033034 34 263 0.0 1.0 0.00 0.11 0.11 64 1017.7
20171211032134 34 263 0.0 1.0 0.00 0.11 0.11 64 1017.8
20171211031234 34 0 0.0 0.0 0.00 0.11 0.11 64 1017.8
20171211030334 34 263 0.0 1.0 0.00 0.11 0.11 63 1017.8
20171211025434 34 0 0.0 0.0 0.00 0.11 0.11 64 1017.8
20171211024534 34 0 0.0 0.0 0.00 0.11 0.11 64 1017.9
20171211023634 35 263 0.0 1.0 0.00 0.11 0.11 63 1017.9
20171211022734 35 263 0.0 2.0 0.00 0.11 0.11 63 1017.8
20171211021834 35 259 1.0 4.0 0.00 0.11 0.11 64 1017.9
20171211020934 35 265 1.0 3.0 0.00 0.11 0.11 63 1017.9
20171211020034 35 264 1.0 4.0 0.00 0.11 0.11 62 1017.7
20171211015134 35 257 0.0 4.0 0.00 0.11 0.11 62 1018.0
20171211014234 35 0 0.0 0.0 0.00 0.11 0.11 60 1017.9
20171211013334 36 249 1.0 3.0 0.00 0.11 0.11 60 1018.0
20171211012434 36 254 1.0 4.0 0.00 0.11 0.11 59 1017.9
20171211011534 36 253 2.0 7.0 0.00 0.11 0.11 59 1017.9
20171211010634 36 268 2.0 7.0 0.00 0.11 0.11 59 1018.0
20171211005734 35 263 1.0 5.0 0.00 0.11 0.11 61 1018.0
20171211004834 35 280 2.0 5.0 0.00 0.11 0.11 60 1018.1
20171211003934 35 268 2.0 6.0 0.00 0.11 0.11 61 1018.0
20171211003034 35 266 1.0 5.0 0.00 0.11 0.11 62 1018.0
20171211002134 34 259 1.0 3.0 0.00 0.11 0.11 61 1017.9
20171211001234 34 284 0.0 2.0 0.00 0.11 0.11 60 1017.9
20171211000334 34 284 0.0 1.0 0.00 0.11 0.11 60 1017.8
20171210235434 34 0 0.0 0.0 0.00 0.11 0.11 61 1017.9
20171210234534 34 0 0.0 0.0 0.00 0.11 0.11 60 1017.9
20171210233634 34 0 0.0 0.0 0.00 0.11 0.11 60 1018.0
20171210232734 34 0 0.0 0.0 0.00 0.11 0.11 60 1017.9
20171210231835 34 285 0.0 1.0 0.00 0.11 0.11 60 1018.1
20171210230934 34 0 0.0 0.0 0.00 0.11 0.11 60 1018.1
20171210230034 34 0 0.0 0.0 0.00 0.11 0.11 59 1018.1
20171210225134 34 284 0.0 1.0 0.00 0.11 0.11 58 1018.0
20171210224234 35 0 0.0 0.0 0.00 0.11 0.11 58 1017.9
20171210223334 35 0 0.0 0.0 0.00 0.11 0.11 57 1018.0
20171210222434 36 285 0.0 1.0 0.00 0.11 0.11 57 1017.9
20171210221534 36 284 0.0 2.0 0.00 0.11 0.11 56 1017.8
20171210220634 36 285 0.0 1.0 0.00 0.11 0.11 55 1017.7
20171210215734 36 273 1.0 3.0 0.00 0.11 0.11 54 1017.6
20171210214834 37 0 0.0 0.0 0.01 0.11 0.11 53 1017.5
20171210213934 37 257 1.0 3.0 0.01 0.11 0.11 52 1017.5
20171210213034 37 261 1.0 4.0 0.01 0.11 0.11 53 1017.5
20171210212134 37 287 1.0 3.0 0.01 0.11 0.11 52 1017.6
20171210211234 37 285 1.0 4.0 0.02 0.11 0.11 53 1017.7
20171210210334 37 279 3.0 8.0 0.02 0.11 0.11 50 1017.5
20171210205434 38 274 4.0 9.0 0.02 0.11 0.11 49 1017.5
20171210204534 38 296 3.0 9.0 0.01 0.10 0.10 48 1017.5
20171210203634 39 278 3.0 9.0 0.02 0.10 0.10 47 1017.3
20171210202734 40 292 2.0 7.0 0.02 0.10 0.10 50 1017.5
20171210201834 39 271 3.0 8.0 0.03 0.10 0.10 51 1017.5
20171210200934 39 315 3.0 8.0 0.02 0.09 0.09 52 1017.6
20171210200034 39 345 2.0 4.0 0.02 0.09 0.09 53 1017.7
20171210195134 39 321 2.0 5.0 0.02 0.09 0.09 55 1017.7
20171210194234 38 322 3.0 7.0 0.01 0.08 0.08 55 1017.5
20171210193334 38 357 2.0 6.0 0.01 0.08 0.08 56 1017.7
20171210192434 38 324 2.0 7.0 0.01 0.08 0.08 56 1017.6
20171210191534 37 360 1.0 4.0 0.00 0.07 0.07 62 1017.7
20171210190634 36 360 2.0 5.0 0.00 0.07 0.07 59 1017.9